Voltar ao catálogo

STARLINK-35293

AtivoComunicaçõesVLEO
NORAD 66012·PAYLOAD·🇺🇸 United States

Lançado Oct 16, 2025 de Cape Canaveral Space Force Station

Loading…

Próximas Passagens (próximas 24 horas)

TLE

AtualizadoSource: CelesTrak SupGP

Época: Sep 15, 2026, 02:40 UTC

1 66012C 25232H   26258.11159722  .00031107  00000+0  91896-3 0  2585
2 66012  53.1572 302.6127 0001310  97.7098  37.5101 15.34378364    18

Acompanhe STARLINK-35293 em tempo real com AllMySat

Download on the App Store